Regional Weather Roundup
Issued by NWS

Home | Current Version | Previous Version | Graphics & Text | Print | Product List | Glossary On
Versions: 1 2 3 4 5 6 7 8 9 10 11 12 13 14 15 16 17 18 19 20 21 22 23 24 25 26 27 28 29 30 31 32 33 34 35 36 37 38 39 40 41 42 43 44 45 46 47 48 49 50
000
ASUS43 KBIS 240102
RWRND

NORTH DAKOTA REGIONAL WEATHER ROUNDUP
NATIONAL WEATHER SERVICE BISMARCK ND
800 PM CDT SUN JUL 23 2017

NOTE: "FAIR" INDICATES FEW OR NO CLOUDS BELOW 12,000 FEET WITH NO
SIGNIFICANT WEATHER AND/OR OBSTRUCTIONS TO VISIBILITY.


NDZ001>003-009>011-017-240200-
NORTHWEST NORTH DAKOTA

CITY           SKY/WX    TMP DP  RH WIND       PRES   REMARKS
WILLISTON      SUNNY     91  52  26 E14       29.87F
MINOT          SUNNY     84  53  34 SE9       29.92F
MINOT AFB      SUNNY     82  56  40 E12       29.91F
$$

NDZ018>021-031>035-040>046-240200-
SOUTHWEST NORTH DAKOTA

CITY           SKY/WX    TMP DP  RH WIND       PRES   REMARKS
BISMARCK       SUNNY     82  55  39 SE9       29.96S
DICKINSON      SUNNY     85  52  32 SE10      29.93S
GARRISON         N/A     81  51  35 E9        29.94F
HETTINGER ARPT SUNNY     86  51  29 SE14      29.97S
$$

NDZ004>008-012>016-024-026-027-054-240200-
NORTHEAST NORTH DAKOTA

CITY           SKY/WX    TMP DP  RH WIND       PRES   REMARKS
GRAND FORKS    MOSUNNY   77  64  64 SW6       29.96S
GRND FRKS AFB  SUNNY     75  62  64 S5        29.97F
DEVILS LAKE    SUNNY     76  56  49 SE3       29.98F
$$

NDZ022-023-025-028>030-036>039-047>053-240200-
SOUTHEAST NORTH DAKOTA

CITY           SKY/WX    TMP DP  RH WIND       PRES   REMARKS
FARGO          SUNNY     76  62  62 NE5       29.97S
JAMESTOWN      SUNNY     76  60  57 E5        29.98S
$$





USA.gov is the U.S. government's official web portal to all federal, state and local government web resources and services.